Content
SEND FEEDBACK

Daily
Averages
Monthly
Summary
China

TAIYUAN, CHINA


Home > Asia > China
Elevation: 2555 feet     Latitude: 37 47N     Longitude: 112 33E

WEATHER
 
SELECT A DAY
Number of Records: 233,859;   Date Range: 7/1/96 - 10/29/14
 
SHARE

PRINT THIS DATA

[ ← Previous Day ]
WEATHER ALMANAC - JANUARY 30, 2013
[ Next Day → ]
[ °C ]   °F
Weather ElementAverageHighLow
Temperature38.4 °F55.4 °F (3:30 pm)26.6 °F (3:00 am)
Dewpoint14.2 °F23 °F (11:30 pm)8.6 °F (3:00 pm)
Humidity40.1 %69 % (7:30 am)13 % (2:00 pm)
Barometer30.07 in30.25 in (8:00 am)29.98 in (3:00 pm)
Wind Speed3.5 mph6.7 mph (2:30 pm)
Weather ElementAverage
Visibility3 mi
Wind DirectionSSE (141.2 °)

Weather ElementTotal
Precipitation---
Heating Degree Days24 (Base 65)
Averaged from 52 records on January 30, 2013
WEATHER CONDITIONS BREAKOUT
WIND DIRECTION BREAKOUT
WEATHER BY HOUR - JANUARY 30, 2013
[ °C ]   °F
Local TimeTemperatureDewpointHumidityBarometerVisibilityWind DirectionWind SpeedGust SpeedPrecipitationEventsConditions
12:30 AM32.0 °F12.2 °F44 %30.12 in3.1 miEast (90°)4.5 mphHaze
1:00 AM30.2 °F12.2 °F47 %30.12 in3.1 miEast (90°)4.5 mphHaze
1:30 AM30.2 °F12.2 °F47 %30.12 in3.1 miNorth (360°)2.2 mphHaze
2:00 AM28.0 °F12.0 °F37 %30.22 in7.0 miNorth4.5 mphClear
2:00 AM28.4 °F12.2 °F51 %30.12 in3.1 miNorth (360°)4.5 mphHaze
2:30 AM28.4 °F14.0 °F55 %30.12 in3.1 miEast (100°)2.2 mphHaze
3:00 AM26.6 °F14.0 °F59 %30.12 in3.1 miEast (100°)2.2 mphHaze
3:30 AM28.4 °F15.8 °F59 %30.12 in3.1 miEast (90°)2.2 mphHaze
4:00 AM28.4 °F15.8 °F59 %30.12 in2.5 miCalmHaze
4:30 AM28.4 °F15.8 °F59 %30.09 in3.1 miEast (100°)2.2 mphHaze
5:00 AM30.2 °F15.8 °F55 %30.09 in3.1 miSE (130°)2.2 mphHaze
5:30 AM28.4 °F15.8 °F59 %30.09 in2.5 miCalmHaze
6:00 AM28.4 °F17.6 °F64 %30.09 in2.5 miESE (120°)2.2 mphHaze
6:30 AM26.6 °F15.8 °F64 %30.09 in2.5 miCalmHaze
7:00 AM28.4 °F15.8 °F59 %30.09 in2.5 miCalmHaze
7:30 AM26.6 °F17.6 °F69 %30.09 in1.9 miEast (80°)2.2 mphHaze
8:00 AM28.0 °F13.0 °F41 %30.25 in6.0 miNNW (340°)2.2 mphScattered Clouds
8:00 AM28.4 °F17.6 °F64 %30.09 in1.2 miNNE (30°)2.2 mphHaze
8:30 AM28.4 °F17.6 °F64 %30.09 in1.2 miEast (100°)2.2 mphHaze
9:00 AM33.8 °F19.4 °F56 %30.12 in1.0 miSE (130°)4.5 mphHaze
9:30 AM37.4 °F14.0 °F38 %30.12 in1.1 miSE (140°)2.2 mphHaze
10:00 AM39.2 °F12.2 °F33 %30.12 in1.9 miSouth (170°)4.5 mphHaze
10:30 AM41.0 °F12.2 °F31 %30.12 in2.2 miSouth (180°)2.2 mphHaze
11:00 AM41.0 °F10.4 °F29 %30.12 in2.5 miSouth (180°)4.5 mphHaze
11:30 AM44.6 °F10.4 °F25 %30.09 in2.5 miSSE (160°)4.5 mphHaze
12:00 PM46.4 °F10.4 °F23 %30.06 in2.2 miSSE (150°)4.5 mphHaze
12:30 PM48.2 °F10.4 °F22 %30.06 in2.2 miSouth (180°)4.5 mphHaze
1:00 PM50.0 °F12.2 °F22 %30.04 in2.5 miSouth (180°)4.5 mphHaze
1:30 PM53.6 °F10.4 °F18 %30.01 in2.5 miSouth (170°)4.5 mphHaze
2:00 PM52.0 °F16.0 °F13 %30.08 in6.0 miWSW (250°)4.5 mphClear
2:00 PM53.6 °F10.4 °F18 %30.01 in3.1 miSSE (150°)4.5 mphHaze
2:30 PM53.6 °F10.4 °F18 %30.01 in4.3 miSW (230°)6.7 mph
3:00 PM53.6 °F8.6 °F16 %29.98 in4.3 miWest (280°)4.5 mph
3:30 PM55.4 °F8.6 °F15 %29.98 in4.3 miWest (280°)4.5 mph
4:00 PM53.6 °F8.6 °F16 %29.98 in4.3 miWSW (240°)4.5 mph
4:30 PM53.6 °F10.4 °F18 %29.98 in3.1 miWSW (250°)4.5 mphHaze
5:00 PM50.0 °F17.0 °F15 %30.06 in6.0 miSSE (160°)2.2 mphClear
5:00 PM51.8 °F12.2 °F21 %29.98 in3.1 miSW (220°)2.2 mphHaze
5:30 PM46.4 °F12.2 °F25 %29.98 in3.1 miSE (140°)2.2 mphHaze
6:00 PM44.6 °F12.2 °F27 %29.98 in3.1 miSE (140°)2.2 mphHaze
6:30 PM39.2 °F12.2 °F33 %30.01 in2.5 miEast (90°)2.2 mphHaze
7:00 PM44.6 °F14.0 °F29 %30.01 in2.5 miEast (80°)6.7 mphHaze
7:30 PM41.0 °F14.0 °F33 %30.01 in2.5 miEast (80°)6.7 mphHaze
8:00 PM35.0 °F15.0 °F31 %30.14 in7.0 miESE (110°)4.5 mphClear
8:00 PM41.0 °F15.8 °F36 %30.01 in2.5 miEast (80°)6.7 mphHaze
8:30 PM39.2 °F17.6 °F42 %30.01 in2.5 miEast (80°)6.7 mphHaze
9:00 PM37.4 °F15.8 °F41 %30.01 in2.5 miEast (90°)2.2 mphHaze
9:30 PM33.8 °F19.4 °F56 %30.04 in2.5 miEast (80°)4.5 mphHaze
10:00 PM39.2 °F21.2 °F49 %30.01 in3.1 miEast (80°)6.7 mphHaze
10:30 PM33.8 °F21.2 °F60 %30.04 in2.5 miEast (90°)4.5 mphHaze
11:00 PM33.8 °F19.4 °F56 %30.04 in2.5 miNorth (350°)2.2 mphHaze
11:30 PM33.8 °F23.0 °F65 %30.04 in2.5 miENE (60°)2.2 mphHaze
Hourly data recorded from ZBYN, located miles away from Taiyuan, China







STORIES FROM OUR PARTNERS